Regional Weather Roundup
Issued by NWS

Home | Current Version | Previous Version | Graphics & Text | Print | Product List | Glossary Off
Versions: 1 2 3 4 5 6 7 8 9 10 11 12 13 14 15 16 17 18 19 20 21 22 23 24 25 26 27 28 29 30 31 32 33 34 35 36 37 38 39 40 41 42 43 44 45 46 47 48 49 50

000
ASUS45 KBOI 231010
RWRID

IDAHO REGIONAL WEATHER ROUNDUP
NATIONAL WEATHER SERVICE BOISE ID
300 AM MST THU FEB 23 2017

NOTE: "FAIR" INDICATES FEW OR NO CLOUDS BELOW 12000 FEET
WITH NO SIGNIFICANT WEATHER AND/OR OBSTRUCTIONS TO VISIBILITY

IDZ012-014-231100-
SOUTHWEST IDAHO


CITY           SKY/WX    TMP DP  RH WIND       PRES   REMARKS
BOISE          CLOUDY    32  25  75 NW17      29.81F WCI  21
CALDWELL       MOCLDY    32  25  75 W23G30    29.87S WCI  19
MOUNTAIN HOME  MOCLDY    31  31  96 NW26G35   29.79F WCI  18
$$

IDZ016-017-231100-
SOUTHCENTRAL IDAHO


CITY           SKY/WX    TMP DP  RH WIND       PRES   REMARKS
BURLEY         CLOUDY    30  26  85 W9        29.67F WCI  22
JEROME           N/A    N/A N/A N/A MISG      29.70F
TWIN FALLS     LGT SNOW  27  25  92 W18       29.70S VSB 3/4 WCI  14
$$

IDZ019>023-231100-
SOUTHEAST IDAHO


CITY           SKY/WX    TMP DP  RH WIND       PRES   REMARKS
IDAHO FALLS    CLOUDY    29  24  82 NW3       29.64F
POCATELLO      LGT SNOW  28  27  96 W10       29.68F VSB 1   WCI  19
REXBURG        CLOUDY    28  18  66 NE8       29.63F WCI  20
$$

IDZ006-010-011-018-031-032-231100-
CENTRAL IDAHO MOUNTAINS


CITY           SKY/WX    TMP DP  RH WIND       PRES   REMARKS
MCCALL         CLOUDY    24  15  68 NW10      29.77F WCI  14
HAILEY         CLOUDY    27  19  74 NW6       29.67F WCI  20
STANLEY          N/A     18  15  88 CALM      29.66F
SALMON         CLOUDY    30  27  86 CALM      29.76R
CHALLIS        LGT SNOW  28  24  85 NW6       29.69F FOG     WCI  22
$$

IDZ002-004-006-007-026-231100-
NORTHERN IDAHO


CITY           SKY/WX    TMP DP  RH WIND       PRES   REMARKS
LEWISTON       CLOUDY    34  28  79 SW5       30.03F WCI  30
LOWELL           N/A     34  32  92 CALM      30.01F
COEUR D`ALENE  FOG       24  23  96 N6        30.02S VSB 1/4 WCI  17
MULLAN PASS    CLOUDY    20  17  88 N5        29.82F FOG     WCI  13
$$



USA.gov is the U.S. government's official web portal to all federal, state and local government web resources and services.